Regional Weather Roundup
Issued by NWS Sioux Falls, SD

Home | Current Version | Previous Version | Graphics & Text | Print | Product List | Glossary On
Versions: 1 2 3 4 5 6 7 8 9 10 11 12 13 14 15 16 17 18 19 20 21 22 23 24 25 26 27 28 29 30 31 32 33 34 35 36 37 38 39 40 41 42 43 44 45 46 47 48 49 50
000
ASUS43 KFSD 261502
RWRFSD

WEATHER ROUNDUP FOR SE SOUTH DAKOTA/SW MINNESOTA/NW IOWA
NATIONAL WEATHER SERVICE SIOUX FALLS SD
1000 AM CDT WED JUL 26 2017

NOTE: "FAIR" INDICATES FEW OR NO CLOUDS BELOW 12,000 FEET WITH NO
SIGNIFICANT WEATHER AND OR OBSTRUCTIONS TO VISIBILITY.


SDZ038>040-050-052>070-261600-
SOUTHEAST SOUTH DAKOTA

CITY           SKY/WX    TMP DP  RH WIND       PRES   REMARKS
BROOKINGS      CLOUDY    74  68  81 NE12      30.06R
CHAMBERLAIN    MOSUNNY   77  73  86 E9        30.05R
HURON          CLOUDY    75  69  81 NE12      30.03S
MADISON        PTSUNNY   73  73 100 NE13      30.05S
MITCHELL       CLOUDY    77  71  82 NE12      30.04R
SIOUX FALLS    PTSUNNY   76  70  82 E6        30.03R
WINNER         CLOUDY    76  68  76 NE7       30.07R
YANKTON        CLOUDY    78  72  81 CALM      30.01R
$$

MNZ071-072-080-081-089-090-097-098-261600-
SOUTHWEST MINNESOTA

CITY           SKY/WX    TMP DP  RH WIND       PRES   REMARKS
FAIRMONT       CLOUDY    72  70  93 SE6       30.04S
JACKSON        CLOUDY    72  68  88 CALM      30.04S
MARSHALL       CLOUDY    73  69  87 NE13      30.05S FOG
MONTEVIDEO     CLOUDY    73  70  88 E5        30.05R
PIPESTONE      MOSUNNY   73  70  88 NE10      30.04S
REDWOOD FALLS  CLOUDY    71  69  93 SE6       30.03F FOG
TRACY          CLOUDY    73  71  95 N6        30.04F
WINDOM         CLOUDY    73  70  88 CALM      30.04S
WORTHINGTON    CLOUDY    72  69  90 E8        30.04F
$$

IAZ001>003-012>014-020>022-031-032-NEZ013-014-SDZ071-261600-
NORTHWEST IOWA

CITY           SKY/WX    TMP DP  RH WIND       PRES   REMARKS
CHEROKEE       RAIN      72  72 100 N5        30.02R
DENISON        CLOUDY    73  72  94 SE12      30.01R
ESTHERVILLE    LGT RAIN  72  72 100 E7        30.03R FOG
ORANGE CITY    CLOUDY    75  72  88 E7        30.02R
SHELDON        CLOUDY    73  70  88 NE9       30.01R
SIOUX CITY     CLOUDY    74  72  93 NE7       30.00R
SPENCER        CLOUDY    74  70  87 E10       30.01F
STORM LAKE     LGT RAIN  72  72 100 NE10      30.03R
$$

ABBREVIATIONS USED IN REMARKS
   TC - TEMPERATURE IN CELSIUS
  WCI - WIND CHILL INDEX
   HX - HEAT INDEX
  VSB - VISIBILITY





USA.gov is the U.S. government's official web portal to all federal, state and local government web resources and services.